South Bend, IN

7:15 AM EST on December 13, 2017 (GMT -0500)
South Bend Regional

Weather History for KSBN - March, 2014

Change the Weather History Date:

Wednesday, March 26, 2014

  Actual Average Record
Temperature  
Mean Temperature 27 °F 41 °F  
Max Temperature 37 °F 51 °F 79 °F (2007)
Min Temperature 17 °F 32 °F 10 °F (1965)
Degree Days  
Heating Degree Days 38 24  
Month to date heating degree days 959 742  
Since 1 July heating degree days 6142 5431  
Cooling Degree Days 0 0  
Month to date cooling degree days 0 0  
Year to date cooling degree days 0 0  
Moisture  
Dew Point 13 °F    
Average Humidity 60    
Maximum Humidity 84    
Minimum Humidity 35    
Precipitation  
Precipitation 0.01 in 0.08 in 1.39 in (1959)
Month to date precipitation 1.53 2.00  
Year to date precipitation 7.47 6.24  
Snow  
Snow 0.00 in 0.10 in 8.00 in (1930)
Month to date snowfall 6.5  
Since 1 July snowfall 64.6  
Snow Depth -    
Sea Level Pressure  
Sea Level Pressure 30.27 in    
Wind  
Wind Speed 8 mph (SSW)    
Max Wind Speed 16 mph    
Max Gust Speed 21 mph    
Visibility 10 miles    
Events Snow    
T = Trace of Precipitation, MM = Missing Value Source: NWS Daily Summary

Daily Weather History Graph

Daily Weather History Graph

Search for Another Location

Airport or City:

Trip Planner

Search our weather history database for the weather conditions in past years. The results will help you decide how hot, cold, wet, or windy it might be!

Date:

Astronomy

Mar. 26, 2014 Rise Set
Actual Time 7:38 AM EDT 8:04 PM EDT
Civil Twilight 7:10 AM EDT 8:32 PM EDT
Nautical Twilight 6:37 AM EDT 9:04 PM EDT
Astronomical Twilight 6:04 AM EDT 9:38 PM EDT
Moon 4:50 AM EDT (3/26) 3:38 PM EDT (3/26)
Length of Visible Light 13h 21m
Length of Day
12h 25m
Waning Crescent, 22% of the Moon is Illuminated
Mar 26
Waning Crescent
Mar 30
New
Apr 7
First Quarter
Apr 15
Full
Apr 22
Last Quarter

Hourly Weather History & Observations

Time (EDT) Temp. Windchill Dew Point Humidity Pressure Visibility Wind Dir Wind Speed Gust Speed Precip Events Conditions
12:54 AM 23.0 °F 13.9 °F 9.0 °F 55% 30.24 in 10.0 mi NW 8.1 mph - 0.00 in   Overcast
3:36 AM 21.0 °F 16.2 °F 15.1 °F 78% 30.23 in 4.0 mi NNE 3.5 mph - 0.01 in Snow Light Snow
3:54 AM 21.0 °F - 15.1 °F 78% 30.27 in 8.0 mi Calm Calm - 0.01 in Snow Light Snow
4:54 AM 21.0 °F - 15.1 °F 78% 30.28 in 9.0 mi Calm Calm - 0.00 in   Overcast
5:54 AM 21.0 °F 14.6 °F 16.0 °F 81% 30.29 in 10.0 mi SSW 4.6 mph - N/A   Overcast
6:54 AM 19.9 °F 14.9 °F 16.0 °F 85% 30.30 in 10.0 mi SSW 3.5 mph - N/A   Overcast
7:54 AM 17.1 °F 10.0 °F 12.9 °F 84% 30.33 in 10.0 mi SSW 4.6 mph - N/A   Clear
8:54 AM 21.0 °F 13.4 °F 15.1 °F 78% 30.35 in 10.0 mi South 5.8 mph - N/A   Clear
9:54 AM 23.0 °F 13.9 °F 14.0 °F 68% 30.36 in 10.0 mi SSW 8.1 mph - N/A   Partly Cloudy
10:54 AM 25.0 °F 18.1 °F 10.9 °F 55% 30.37 in 10.0 mi SSW 5.8 mph - N/A   Mostly Cloudy
11:01 AM 26.1 °F 19.4 °F 10.9 °F 53% 30.33 in 10.0 mi West 5.8 mph - N/A   Mostly Cloudy
11:54 AM 26.1 °F 16.8 °F 12.0 °F 55% 30.37 in 10.0 mi West 9.2 mph - 0.00 in   Overcast
12:54 PM 30.0 °F 22.4 °F 15.1 °F 54% 30.34 in 10.0 mi SE 8.1 mph - N/A   Partly Cloudy
1:54 PM 30.9 °F 22.2 °F 12.9 °F 47% 30.32 in 10.0 mi South 10.4 mph 18.4 mph N/A   Partly Cloudy
2:54 PM 33.1 °F 25.5 °F 12.0 °F 42% 30.29 in 10.0 mi SW 9.2 mph - N/A   Clear
3:54 PM 35.1 °F 27.4 °F 12.9 °F 40% 30.26 in 10.0 mi South 10.4 mph - N/A   Clear
4:54 PM 36.0 °F 28.0 °F 12.9 °F 39% 30.24 in 10.0 mi South 11.5 mph - N/A   Clear
5:54 PM 37.4 °F 29.3 °F 12.2 °F 36% 30.18 in 10.0 mi South 12.7 mph 19.6 mph N/A   Clear
6:54 PM 37.0 °F 28.9 °F 12.0 °F 36% 30.20 in 10.0 mi South 12.7 mph - N/A   Clear
7:54 PM 35.1 °F 26.9 °F 12.9 °F 40% 30.19 in 10.0 mi South 11.5 mph - N/A   Scattered Clouds
8:54 PM 35.1 °F 27.9 °F 14.0 °F 42% 30.19 in 10.0 mi SSE 9.2 mph - N/A   Overcast
9:54 PM 35.1 °F 26.4 °F 15.1 °F 44% 30.16 in 10.0 mi SSE 12.7 mph - N/A   Overcast
10:54 PM 35.1 °F 26.9 °F 16.0 °F 46% 30.15 in 10.0 mi South 11.5 mph - N/A   Overcast
11:54 PM 36.0 °F 27.5 °F 15.1 °F 43% 30.12 in 10.0 mi South 12.7 mph - N/A   Overcast